Location: Nelson
(41.2830°S, 173.2830°E)
Time: 19:26:07
(UTC+12:00)

BREEZE-M DEB - Pass Details

Date: 14 May 2021
Orbit: 281 x 15958 km, 49.5° (Epoch: 18 June)

Event Time Altitude Azimuth Distance (km) Brightness Sun altitude
Rises 19:01:46 0° 281° (W) 3,202 8.4 -19.3°
Reaches altitude 10° 19:05:01 10° 268° (W) 1,571 6.3 -19.9°
Enters shadow 19:07:19 26° 216° (SW) 682 3.6 -20.3°
